Regional Weather Roundup
Issued by NWS

Home | Current Version | Previous Version | Text Only | Print | Product List | Glossary Off
Versions: 1 2 3 4 5 6 7 8 9 10 11 12 13 14 15 16 17 18 19 20 21 22 23 24 25 26 27 28 29 30 31 32 33 34 35 36 37 38 39 40 41 42 43 44 45 46 47 48 49 50

000
ASUS43 KMKX 230420
RWRWI

WISCONSIN REGIONAL WEATHER ROUNDUP
NATIONAL WEATHER SERVICE MILWAUKEE/SULLIVAN WI
1000 PM CST THU FEB 22 2018

NOTE: "FAIR" INDICATES FEW OR NO CLOUDS BELOW 12,000 FEET WITH NO
SIGNIFICANT WEATHER AND/OR OBSTRUCTIONS TO VISIBILITY.

WIZ001-002-006>008-014>016-023>028-230500-
NORTHWEST WISCONSIN

CITY           SKY/WX    TMP DP  RH WIND       PRES   REMARKS
SUPERIOR ARPT  CLOUDY    23  22  95 NE8       30.33F WCI  14
ASHLAND        CLOUDY    21  15  78 CALM      30.35F
HAYWARD        LGT SNOW  26  22  84 E8        30.27F VSB 3/4 WCI  18
SIREN          LGT SNOW  25  23  91 E3        30.28F VSB 3/4
CUMBERLAND     LGT SNOW  25  23  93 E8        30.25F VSB 3/4 WCI  16
RICE LAKE      SNOW      26  25  95 E9        30.28F VSB 1/2 WCI  17
CHETEK         LGT SNOW  26  24  93 E7        30.27F WCI  18
LADYSMITH      LGT SNOW  26  24  92 E8G16     30.30F WCI  18
EAU CLAIRE     MIX PCPN  26  23  88 E10       30.25F FOG     WCI  16
MENOMONIE      LGT SNOW  27  25  93 E12       30.25F WCI  16
NEW RICHMOND   LGT SNOW  26  22  87 E9        30.24F WCI  16
OSCEOLA        LGT SNOW  26  24  90 E5        30.28F WCI  21
$$

WIZ003>005-009-010-017-018-230500-
NORTH CENTRAL WISCONSIN

CITY           SKY/WX    TMP DP  RH WIND       PRES   REMARKS
MANITOWISH WTR LGT SNOW  24  21  87 SE9       30.32F WCI  15
ARBOR VITAE    LGT SNOW  25  22  89 SE7       30.32F VSB 1   WCI  17
WOODRUFF       LGT SNOW  25  22  89 SE7       30.32F VSB 1   WCI  17
RHINELANDER    LGT SNOW  24  22  91 E9        30.30F FOG     WCI  14
EAGLE RIVER    LGT SNOW  24  21  91 E7        30.31F VSB 3/4 WCI  16
LAND O LAKES   LGT SNOW  25  20  81 S7G18     30.34F VSB 1   WCI  18
PHILLIPS       LGT SNOW  23  22  98 E6        30.27F WCI  16
TOMAHAWK       LGT SNOW  23  21  91 E5        30.31F WCI  17
MEDFORD        LGT SNOW  24  19  82 E13       30.27F WCI  12
MERRILL        FLURRIES  25  21  85 E8        30.31F WCI  16
$$

WIZ029-030-035-036-043>047-230500-
CENTRAL WISCONSIN

CITY           SKY/WX    TMP DP  RH WIND       PRES   REMARKS
WAUSAU         CLOUDY    26  19  74 E8        30.30F WCI  18
MOSINEE        LGT SNOW  27  19  74 E8        30.33F WCI  18
MARSHFIELD     LGT SNOW  25  22  88 E13       30.26F FOG     WCI  14
STEVENS POINT  LGT SNOW  26  19  77 E10G17    30.34F WCI  16
WAUPACA        LGT RAIN  31  26  83 E6        30.35F WCI  25
WAUTOMA        FRZ RAIN  28  27  93 E9          N/A  FOG     WCI  20
WISC RAPIDS    FRZ RAIN  27  23  85 E10       30.31F FOG     WCI  17
CAMP DOUGLAS   CLOUDY    28  28 100 SE12      30.29F WCI  18
$$

WIZ011>013-019>022-031-037>040-048>050-230500-
NORTHEAST WISCONSIN

CITY           SKY/WX    TMP DP  RH WIND       PRES   REMARKS
ANTIGO         FLURRIES  24  19  81 E13G18    30.34F WCI  12
SHAWANO        CLOUDY    30  25  81 E8        30.36F WCI  22
OCONTO         CLOUDY    29  25  83 NE5       30.40F WCI  24
STURGEON BAY   CLOUDY    33  27  78 E7        30.40F WCI  27
GREEN BAY      CLOUDY    29  24  82 NE10      30.39F WCI  20
MANITOWOC      CLOUDY    34  27  75 E9        30.40F WCI  27
APPLETON       CLOUDY    30  23  74 E13       30.34F WCI  20
CLINTONVILLE   CLOUDY    30  23  77 E7        30.36F WCI  23
OSHKOSH        CLOUDY    30  29  96 NE8       30.34F FOG     WCI  22
$$

WIZ032>034-041-042-053>061-230500-
SOUTHWEST WISCONSIN

CITY           SKY/WX    TMP DP  RH WIND       PRES   REMARKS
LA CROSSE      FRZ RAIN  32  28  85 SE9       30.25F WCI  24
SPARTA         CLOUDY    29  28  95 E9        30.29F WCI  20
VIROQUA        CLOUDY    30  30 100 SE16      30.23F WCI  19
BOSCOBEL       CLOUDY    34  31  88 VRB5      30.29F FOG     WCI  30
PRAIRIE DU CHI MIX PCPN  33  31  94 E9        30.26F WCI  25
PLATTEVILLE    CLOUDY    32  32 100 E13G18    30.26F WCI  23
$$

WIZ056-057-062-063-064-067-068-230500-
SOUTH CENTRAL WISCONSIN

CITY           SKY/WX    TMP DP  RH WIND       PRES   REMARKS
REEDSBURG      CLOUDY    30  30 100 E9        30.29F FOG     WCI  22
BARABOO/DELLS  MIX PCPN  30  29  96 E9        30.30F WCI  22
LONE ROCK      CLOUDY    32  32 100 E14       30.28F FOG     WCI  22
MINERAL POINT  CLOUDY    32  32 100 E12       30.26F WCI  23
MADISON        CLOUDY    31  29  92 E7        30.31F WCI  24
MIDDLETON      CLOUDY    32  32  98 E8        30.30F WCI  25
WATERTOWN      CLOUDY    33  30  89 E7        30.32F WCI  27
MONROE         CLOUDY    32  32 100 NE9       30.27F WCI  24
JANESVILLE     CLOUDY    36  36 100 E9        30.28F WCI  29
$$

WIZ051-052-058>065-066-070>072-230500-
SOUTHEAST WISCONSIN

CITY           SKY/WX    TMP DP  RH WIND       PRES   REMARKS
MILWAUKEE      CLOUDY    36  31  82 E15       30.33F WCI  27
WAUKESHA       CLOUDY    32  28  86 E10G18    30.33F WCI  24
MILWAUKEE/TIMM CLOUDY    34  27  75 E10G16    30.34F WCI  26
RACINE         CLOUDY    36  31  82 E10       30.34F WCI  28
BURLINGTON     CLOUDY    36  31  82 E10       30.31F WCI  28
KENOSHA        CLOUDY    37  30  75 E14       30.31F WCI  28
FOND DU LAC    CLOUDY    32  28  85 E7        30.34F WCI  26
SHEBOYGAN      CLOUDY    35  26  69 E10       30.37F WCI  27
WEST BEND      CLOUDY    34  30  86 E10       30.34F WCI  26
JUNEAU         CLOUDY    32  28  84 E7        30.34F WCI  25
$$

LSZ147-162-230500-
LAKE SUPERIOR

STATION/POSITION TIME  TEMP    WIND        PRES    WAVE
                       AIR SEA DIR/SP/G            HT/PER
                 (UTC) (F)     (DEG/KT/KT) (MB)    (FT/S)
DEVILS ISLAND    0400   26      90/  9/  9 1029.3F
SAXON HARBOR     0340   22      CALM  /  1 1027.4F
$$

LMZ867-665-643>646-230500-
LAKE MICHIGAN

STATION/POSITION TIME  TEMP    WIND        PRES    WAVE
                       AIR SEA DIR/SP/G            HT/PER
                 (UTC) (F)     (DEG/KT/KT) (MB)    (FT/S)
NORTHPORT PIER   0400   33                 1029.8
KEWAUNEE LAKESHO 0354   35     100/  8/ 11 1028.7F
SHEBOYGAN LAKESH 0400   35     110/ 16/ 18 1029.0F
PORT WASHINGTON  0340   36      90/ 13/ 16 1029.5F
MILWAUKEE LAKESH 0400   35      90/ 12/ 13   N/A
KENOSHA   LAKESH 0400   36     110/  9/ 12 1026.8
$$

TC  - TEMPERATURE IN CELSIUS
VSB - VISIBILITY IN STATUTE MILES
WCI - WIND CHILL INDEX
HX  - HEAT INDEX





USA.gov is the U.S. government's official web portal to all federal, state and local government web resources and services.